Regional Weather Roundup
Issued by NWS

Home | Current Version | Previous Version | Graphics & Text | Print | Product List | Glossary On
Versions: 1 2 3 4 5 6 7 8 9 10 11 12 13 14 15 16 17 18 19 20 21 22 23 24 25 26 27 28 29 30 31 32 33 34 35 36 37 38 39 40 41 42 43 44 45 46 47 48 49 50
000
ASUS43 KDMX 281403
RWRIA

WEATHER ROUNDUP FOR IOWA
NATIONAL WEATHER SERVICE DES MOINES IA
900 AM CDT SAT MAY 28 2016

NOTE: "FAIR" INDICATES FEW OR NO CLOUDS BELOW 12,000 FEET WITH NO
SIGNIFICANT WEATHER AND/OR OBSTRUCTIONS TO VISIBILITY.

* - THESE STATIONS ARE NOT NWS STATIONS...THUS NOT UNDER NWS
QUALITY CONTROL.  THEY ALSO DO NOT REPORT WEATHER SUCH
AS PRECIPITATION OR FOG.

IAZ001>003-012>014-020>022-031>034-043>046-281500-
   NORTHWEST IOWA

CITY           SKY/WX    TMP DP  RH WIND       PRES   REMARKS
CARROLL *      CLOUDY    66  63  88 SW14      29.76R
CHEROKEE *     CLOUDY    65  63  92 SW10      29.75S
DENISON *      CLOUDY    63  59  88 VRB6G17   29.76R
LE MARS *      CLOUDY    63  59  88 S8        29.75S
ORANGE CITY *  CLOUDY    63  61  94 S9        29.75S
SHELDON *      PTSUNNY   64  63  94 SE7       29.74S
SIOUX CITY     PTSUNNY   65  59  81 S8        29.74S
SPENCER        LGT RAIN  62  60  93 CALM      29.77R
STORM LAKE *   CLOUDY    64  61  88 S10       29.77R
$$

IAZ055>058-069>071-079>083-090>094-281500-
   SOUTHWEST IOWA

CITY           SKY/WX    TMP DP  RH WIND       PRES   REMARKS
ATLANTIC *     CLOUDY    63  61  94 SW9       29.78R FOG
AUDUBON *      MOSUNNY   66  61  82 S8        29.78R
CLARINDA *       N/A     63  61  94 MISG      29.80R
COUNCIL BLFS * MOSUNNY   63  59  88 S10       29.78R
CRESTON *      CLOUDY    64  63  94 S10G17    29.79R
HARLAN  *      CLOUDY    63  61  94 S9        29.81R
LAMONI         PTSUNNY   64  61  90 S12       29.79R
RED OAK *      CLOUDY    63  61  94 SW5       29.79R
SHENANDOAH *   CLOUDY    63  61  94 SW7       29.80R
$$

IAZ047>049-059>061-072>074-084-281500-
   CENTRAL IOWA

CITY           SKY/WX    TMP DP  RH WIND       PRES   REMARKS
AMES           CLOUDY    65  62  90 S6        29.77S
ANKENY *       CLOUDY    64  64 100 S7        29.77R
BOONE *        MOSUNNY   66  61  82 S8        29.76S
CHARITON *     MOSUNNY   66  63  88 S12G18    29.79R
DES MOINES     PTSUNNY   67  63  87 S7        29.77S
GRINNELL*      CLOUDY    66  63  88 S10G16    29.80R
KNOXVILLE *    PTSUNNY   68  63  83 S10       29.78R
MARSHALLTOWN   CLOUDY    65  63  93 S8        29.78R
NEWTON *       CLOUDY    66  66 100 S12       29.79R
PERRY *          N/A     68  64  88 SE12      29.76S
$$

IAZ004>006-015-016-023>025-035-036-281500-
   NORTH CENTRAL IOWA

CITY           SKY/WX    TMP DP  RH WIND       PRES   REMARKS
ALGONA *       CLOUDY    66  63  88 S9        29.76R
CLARION *      CLOUDY    66  63  88 S7        29.77R
ESTHERVILLE    CLOUDY    65  63  93 S12       29.75R
FORT DODGE *   CLOUDY    64  59  82 S3        29.77R
MASON CITY     LGT RAIN  63  62  97 CALM      29.78S FOG
FOREST CITY *  PTSUNNY   64  61  88 S6        29.76S
WEBSTER CITY * CLOUDY    66  63  88 SE7       29.75S
IOWA FALLS *   CLOUDY    64  63  94 S5        29.79S
$$

IAZ007>011-017>019-026>030-037>042-050>054-066-281500-
   NORTHEAST IOWA

CITY           SKY/WX    TMP DP  RH WIND       PRES   REMARKS
CEDAR RAPIDS   CLOUDY    66  65  96 S8        29.80R
CHARLES CITY * CLOUDY    68  68 100 S14       29.78R
CLINTON *      CLOUDY    71  67  87 S15       29.84R
DECORAH *      CLOUDY    66  66 100 SW9G15    29.77R FOG
DUBUQUE        CLOUDY    65  63  93 S14       29.82R
MONTICELLO *   PTSUNNY   66  64  94 S13       29.81R
OELWEIN *      CLOUDY    66  64  94 S13       29.81R
WATERLOO       CLOUDY    65  62  90 S6        29.79R
$$

IAZ064-065-067-068-078-281500-
   EAST CENTRAL IOWA

CITY           SKY/WX    TMP DP  RH WIND       PRES   REMARKS
DAVENPORT      CLOUDY    72  66  81 S20       29.84R
IOWA CITY      CLOUDY    67  65  93 S7        29.83R
MT. PLEASANT * PTSUNNY   73  70  88 S14G21    29.84R
MUSCATINE *    CLOUDY    72  68  88 S14G20    29.83R
QUAD CITIES    CLOUDY    74  66  76 S13       29.83R
$$

IAZ062-063-075>077-085>089-095>099-281500-
   SOUTHEAST IOWA

CITY           SKY/WX    TMP DP  RH WIND       PRES   REMARKS
BURLINGTON     PTSUNNY   72  67  84 S18G24    29.85R
FAIRFIELD *      N/A    N/A N/A N/A MISG        N/A
FORT MADISON * CLOUDY    70  66  88 S13G20    29.86R
KEOKUK *       PTSUNNY   70  66  88 S12G22    29.85R
OSKALOOSA *      N/A     68  66  94 S12       29.81R
OTTUMWA        SUNNY     69  65  86 S12       29.80R
WASHINGTON *   PTSUNNY   70 -38   1 S17       29.83R
$$

ABBREVIATIONS USED IN REMARKS
   TC - TEMPERATURES IN CELSIUS
  WCI - WIND CHILL INDEX
   HX - HEAT INDEX
  VSB - VISIBILITY
$$





USA.gov is the U.S. government's official web portal to all federal, state and local government web resources and services.